• In Belarus
  • List of Countries
  • For 7 days
  • Water Temperature
  • Weather Map
  • Weather Widgets
  • user-avatar
    Login

    Hourly Weather Zabrod

    Today, 21 September, Saturday

    Time Temperature Precipitation Wind Pressure Humidity
    00:00 +13°C° 0 mm 4 mps 766 mmHg 84%
    01:00 +13°C° 0 mm 4 mps 766 mmHg 83%
    02:00 +12°C° 0 mm 4 mps 766 mmHg 86%
    03:00 +11°C° 0 mm 4 mps 765 mmHg 89%
    04:00 +11°C° 0 mm 4 mps 765 mmHg 91%
    05:00 +11°C° 0 mm 4 mps 765 mmHg 91%
    06:00 +11°C° 0 mm 4 mps 765 mmHg 91%
    07:00 +11°C° 0 mm 4 mps 765 mmHg 91%
    08:00 +12°C° 0 mm 4 mps 765 mmHg 86%
    09:00 +14°C° 0 mm 4 mps 765 mmHg 82%
    10:00 +15°C° 0 mm 4 mps 765 mmHg 77%
    11:00 +17°C° 0 mm 4 mps 765 mmHg 73%
    12:00 +18°C° 0 mm 3 mps 765 mmHg 68%
    13:00 +19°C° 0 mm 3 mps 764 mmHg 64%
    14:00 +20°C° 0 mm 3 mps 764 mmHg 63%
    15:00 +20°C° 0 mm 2 mps 764 mmHg 63%
    16:00 +20°C° 0 mm 2 mps 764 mmHg 62%
    17:00 +19°C° 0 mm 1 mps 763 mmHg 70%
    18:00 +16°C° 0 mm 1 mps 763 mmHg 77%
    19:00 +14°C° 0 mm 1 mps 763 mmHg 85%
    20:00 +14°C° 0 mm 1 mps 763 mmHg 85%
    21:00 +14°C° 0 mm 1 mps 763 mmHg 85%
    22:00 +13°C° 0 mm 1 mps 763 mmHg 85%
    23:00 +13°C° 0 mm 1 mps 763 mmHg 84%

    Tomorrow, 22 September, Sunday

    Time Temperature Precipitation Wind Pressure Humidity
    00:00 +13°C° 0 mm 1 mps 763 mmHg 83%
    01:00 +12°C° 0 mm 1 mps 762 mmHg 82%
    02:00 +12°C° 0 mm 1 mps 762 mmHg 83%
    03:00 +12°C° 0 mm 1 mps 762 mmHg 83%
    04:00 +10°C° 0 mm 2 mps 762 mmHg 84%
    05:00 +12°C° 0 mm 2 mps 761 mmHg 82%
    06:00 +12°C° 0 mm 2 mps 761 mmHg 80%
    07:00 +13°C° 0 mm 2 mps 761 mmHg 78%
    08:00 +15°C° 0 mm 2 mps 761 mmHg 70%
    09:00 +17°C° 0 mm 2 mps 761 mmHg 61%
    10:00 +19°C° 0 mm 2 mps 761 mmHg 53%
    11:00 +21°C° 0 mm 2 mps 760 mmHg 50%
    12:00 +23°C° 0 mm 2 mps 760 mmHg 48%
    13:00 +24°C° 0 mm 2 mps 760 mmHg 45%
    14:00 +24°C° 0 mm 2 mps 759 mmHg 46%
    15:00 +24°C° 0 mm 2 mps 759 mmHg 47%
    16:00 +24°C° 0 mm 3 mps 758 mmHg 48%
    17:00 +21°C° 0 mm 3 mps 758 mmHg 54%
    18:00 +19°C° 0 mm 3 mps 758 mmHg 59%
    19:00 +16°C° 0 mm 3 mps 758 mmHg 64%
    20:00 +16°C° 0 mm 3 mps 758 mmHg 66%
    21:00 +14°C° 0 mm 3 mps 758 mmHg 67%
    22:00 +13°C° 0 mm 3 mps 759 mmHg 68%
    23:00 +13°C° 0 mm 3 mps 758 mmHg 70%

    Day after tomorrow, 23 September, Monday

    Time Temperature Precipitation Wind Pressure Humidity
    00:00 +13°C° 0 mm 3 mps 758 mmHg 73%
    01:00 +12°C° 0 mm 3 mps 758 mmHg 75%
    02:00 +12°C° 0 mm 3 mps 758 mmHg 76%
    03:00 +11°C° 0 mm 3 mps 758 mmHg 77%
    04:00 +11°C° 0 mm 3 mps 758 mmHg 78%
    05:00 +11°C° 0 mm 3 mps 758 mmHg 77%
    06:00 +11°C° 0 mm 3 mps 758 mmHg 76%
    07:00 +12°C° 0 mm 3 mps 758 mmHg 74%
    08:00 +14°C° 0 mm 3 mps 758 mmHg 67%
    09:00 +17°C° 0 mm 3 mps 758 mmHg 60%
    10:00 +19°C° 0 mm 3 mps 758 mmHg 53%
    11:00 +20°C° 0 mm 3 mps 758 mmHg 51%
    12:00 +21°C° 0 mm 3 mps 758 mmHg 48%
    13:00 +22°C° 0 mm 3 mps 757 mmHg 46%
    14:00 +22°C° 0 mm 3 mps 757 mmHg 47%
    15:00 +23°C° 0 mm 2 mps 757 mmHg 49%
    16:00 +23°C° 0 mm 1 mps 757 mmHg 51%
    17:00 +20°C° 0 mm 2 mps 757 mmHg 56%
    18:00 +18°C° 0 mm 2 mps 757 mmHg 60%
    19:00 +17°C° 0 mm 2 mps 757 mmHg 64%
    20:00 +16°C° 0 mm 2 mps 758 mmHg 68%
    21:00 +16°C° 0 mm 2 mps 758 mmHg 71%
    22:00 +15°C° 0 mm 2 mps 758 mmHg 74%
    23:00 +15°C° 0 mm 2 mps 758 mmHg 78%

    24 September, Tuesday

    Time Temperature Precipitation Wind Pressure Humidity
    00:00 +15°C° 0 mm 2 mps 758 mmHg 82%
    01:00 +14°C° 0 mm 1 mps 758 mmHg 86%
    02:00 +14°C° 0 mm 1 mps 758 mmHg 87%
    03:00 +14°C° 0 mm 1 mps 757 mmHg 89%
    04:00 +14°C° 0 mm 1 mps 757 mmHg 90%
    05:00 +14°C° 0.1 mm 1 mps 757 mmHg 91%
    06:00 +13°C° 0.1 mm 0 mps 757 mmHg 91%
    07:00 +13°C° 0.1 mm 0 mps 757 mmHg 92%
    08:00 +15°C° 0.2 mm 1 mps 758 mmHg 91%
    09:00 +15°C° 0.2 mm 1 mps 758 mmHg 90%
    10:00 +15°C° 0.2 mm 1 mps 758 mmHg 90%
    11:00 +15°C° 0.1 mm 1 mps 758 mmHg 89%
    12:00 +16°C° 0.1 mm 1 mps 758 mmHg 88%
    13:00 +16°C° 0.1 mm 1 mps 757 mmHg 87%
    14:00 +16°C° 0.1 mm 1 mps 757 mmHg 85%
    15:00 +18°C° 0.1 mm 1 mps 757 mmHg 84%
    16:00 +18°C° 0.1 mm 1 mps 757 mmHg 83%
    17:00 +16°C° 0 mm 1 mps 757 mmHg 86%
    18:00 +15°C° 0 mm 2 mps 757 mmHg 88%
    19:00 +15°C° 0 mm 2 mps 757 mmHg 91%
    20:00 +14°C° 0 mm 2 mps 757 mmHg 91%
    21:00 +14°C° 0 mm 2 mps 756 mmHg 91%
    22:00 +14°C° 0 mm 2 mps 756 mmHg 91%
    23:00 +14°C° 0 mm 2 mps 756 mmHg 92%

    25 September, Wednesday

    Time Temperature Precipitation Wind Pressure Humidity
    00:00 +14°C° 0 mm 2 mps 756 mmHg 93%
    01:00 +13°C° 0 mm 2 mps 756 mmHg 93%
    02:00 +13°C° 0 mm 2 mps 755 mmHg 92%
    03:00 +14°C° 0 mm 2 mps 755 mmHg 91%
    04:00 +14°C° 0 mm 2 mps 754 mmHg 90%
    05:00 +14°C° 0 mm 2 mps 754 mmHg 90%
    06:00 +14°C° 0 mm 2 mps 754 mmHg 89%
    07:00 +14°C° 0 mm 2 mps 754 mmHg 89%
    08:00 +14°C° 0.4 mm 2 mps 754 mmHg 90%
    09:00 +14°C° 0.4 mm 2 mps 754 mmHg 90%
    10:00 +13°C° 0.4 mm 3 mps 754 mmHg 91%
    11:00 +13°C° 1.4 mm 3 mps 753 mmHg 92%
    12:00 +13°C° 1.4 mm 3 mps 753 mmHg 93%
    13:00 +13°C° 1.4 mm 3 mps 753 mmHg 94%
    14:00 +13°C° 0.6 mm 3 mps 753 mmHg 94%
    15:00 +14°C° 0.6 mm 2 mps 753 mmHg 94%
    16:00 +15°C° 0.6 mm 2 mps 753 mmHg 95%
    17:00 +14°C° 0.4 mm 2 mps 753 mmHg 95%
    18:00 +14°C° 0.4 mm 2 mps 753 mmHg 96%
    19:00 +14°C° 0.4 mm 2 mps 753 mmHg 96%
    20:00 +14°C° 0.2 mm 2 mps 753 mmHg 96%
    21:00 +13°C° 0.2 mm 3 mps 753 mmHg 95%
    22:00 +13°C° 0.2 mm 3 mps 753 mmHg 95%
    23:00 +13°C° 0 mm 3 mps 753 mmHg 95%

    26 September, Thursday

    Time Temperature Precipitation Wind Pressure Humidity
    00:00 +13°C° 0 mm 3 mps 753 mmHg 95%
    01:00 +13°C° 0 mm 3 mps 753 mmHg 95%
    02:00 +13°C° 0 mm 3 mps 753 mmHg 95%
    03:00 +13°C° 0 mm 3 mps 754 mmHg 96%
    04:00 +13°C° 0 mm 3 mps 754 mmHg 96%
    05:00 +12°C° 0 mm 3 mps 754 mmHg 96%
    06:00 +12°C° 0 mm 3 mps 754 mmHg 95%
    07:00 +12°C° 0 mm 3 mps 754 mmHg 95%
    08:00 +14°C° 0 mm 3 mps 754 mmHg 89%
    09:00 +16°C° 0 mm 3 mps 754 mmHg 83%
    10:00 +17°C° 0 mm 3 mps 754 mmHg 77%
    11:00 +18°C° 0.3 mm 3 mps 754 mmHg 75%
    12:00 +18°C° 0.3 mm 3 mps 754 mmHg 73%
    13:00 +19°C° 0.3 mm 4 mps 754 mmHg 70%
    14:00 +17°C° 0.5 mm 3 mps 754 mmHg 77%
    15:00 +16°C° 0.5 mm 3 mps 754 mmHg 83%
    16:00 +14°C° 0.5 mm 3 mps 753 mmHg 89%
    17:00 +14°C° 0.7 mm 3 mps 753 mmHg 91%
    18:00 +14°C° 0.7 mm 3 mps 753 mmHg 93%
    19:00 +13°C° 0.7 mm 3 mps 753 mmHg 95%
    20:00 +13°C° 0.2 mm 3 mps 753 mmHg 94%
    21:00 +14°C° 0.2 mm 4 mps 753 mmHg 94%
    22:00 +14°C° 0.2 mm 4 mps 753 mmHg 94%
    23:00 +14°C° 0.5 mm 4 mps 753 mmHg 94%
    Show more